{"data":{"norad_id":52257,"intl_designator":"2022-039A","name":"DAQI-1","alt_names":[],"object_type":"PAYLOAD","status":"ACTIVE","operator":null,"country":"PRC","launch_date":"2022-04-15","launch_site_code":"TAISC","launch_vehicle":null,"mission":null,"orbit_class":"UNKNOWN","rcs_meters":null,"size_class":null,"mass_kg":null,"dimensions":null,"purposes":[],"wikipedia_slug":null,"has_3d_model":false,"image_url":null,"decayed_at":null,"tle_current":{"epoch":"2026-05-25T03:35:47.783904Z","epoch_age_seconds":58441,"freshness":"FRESH","line1":"1 52257U 22039A   26145.14985861  .00000504  00000+0  12035-3 0  9999","line2":"2 52257  98.1472  84.4794 0003396 349.9572  10.1559 14.57661827218582","mean_motion":14.57661827,"eccentricity":0.0003396,"inclination_deg":98.1472,"raan_deg":84.4794,"arg_perigee_deg":349.9572,"mean_anomaly_deg":10.1559,"bstar":0.00012035,"rev_number":21858,"period_min":98.788345371138,"perigee_km":698.32984229327,"apogee_km":703.13781135885,"semimajor_km":7078.8708268261,"source":"CELESTRAK","updated_at":"2026-05-25T13:37:57.652010Z"}}}